Location: High Meadows Obseravatory
(40.7417°N, 111.5713°W)
Time: 13:39:16
(UTC-06:00)

BlueWalker 3 - Visible Passes

Search period start: 24 March 2023 00:00
Search period end: 03 April 2023 00:00
Orbit: 497 x 515 km, 53.2° (Epoch: 24 March)

Date Brightness Start Highest point End Pass type
(mag) Time Alt. Az. Time Alt. Az. Time Alt. Az.
24 Mar 4.3 04:45:04 20° E 04:45:04 20° E 04:46:27 10° ESE visible
24 Mar 3.0 06:19:53 21° W 06:21:13 25° SW 06:24:24 10° S visible
25 Mar 3.2 06:02:14 23° SSW 06:02:14 23° SSW 06:04:39 10° S visible
25 Mar 3.0 21:22:23 10° SSW 21:24:50 31° S 21:24:50 31° S visible
26 Mar 4.4 05:44:50 10° S 05:44:50 10° S 05:44:52 10° S visible
26 Mar 2.3 21:02:37 10° SSW 21:06:18 42° SE 21:07:24 33° E visible
26 Mar 4.8 22:41:29 10° W 22:42:15 14° W 22:42:15 14° W visible
27 Mar 2.3 20:42:49 10° SSW 20:46:32 44° SE 20:49:41 14° ENE visible
27 Mar 3.9 22:21:45 10° W 22:24:30 28° NW 22:24:30 28° NW visible
28 Mar 2.2 20:22:59 10° SSW 20:26:44 46° SE 20:30:28 10° ENE visible
28 Mar 3.7 22:01:59 10° W 22:05:26 29° NNW 22:06:25 26° N visible
29 Mar 3.8 21:42:11 10° W 21:45:36 28° NNW 21:48:03 15° NNE visible
30 Mar 3.9 21:22:22 10° W 21:25:45 28° NNW 21:29:08 10° NE visible
30 Mar 5.1 23:03:24 10° NW 23:04:13 12° NNW 23:04:13 12° NNW visible
31 Mar 3.9 21:02:30 10° W 21:05:52 27° NNW 21:09:14 10° NNE visible
31 Mar 4.8 22:43:33 10° NW 22:45:24 13° N 22:45:24 13° N visible
01 Apr 4.0 20:42:37 10° W 20:45:57 26° NNW 20:49:18 10° NNE visible
01 Apr 4.7 22:23:39 10° NW 22:25:35 13° N 22:26:27 12° N visible
02 Apr 4.0 20:22:41 10° W 20:26:00 26° NNW 20:29:19 10° NNE visible
02 Apr 4.7 22:03:44 10° NW 22:05:38 13° N 22:07:21 11° NNE visible
